sat.trackr.live / text

‹ back to catalog

STARLINK-4263

NORAD 53010 · 2022-076AA

PAYLOAD ACTIVE UNKNOWN

§ Identity

Operator
Country
US
Launch date
2022-07-07
Launch site
AFETR
Launch vehicle
Mass (kg)
RCS (m²)

Purposes: comms

External: N2YO · Heavens-Above · Gunter

§ Orbital elements

Epoch: 2026-05-25T04:53:45.314016Z

Period
95.44 min
Inclination
53.2132°
Eccentricity
0.0001356
Mean motion
15.08835343 rev/d
Perigee alt
538.8 km
Apogee alt
540.7 km
Semi-major
6,917.9 km
B*
-4.2475e-5
RAAN
110.3613°
Arg perigee
80.0091°
Mean anomaly
280.1054°
Rev number
21,440

§ Raw data

STARLINK-42631 53010U 22076AA  26145.20399669 -.00000964  00000+0 -42475-4 0  99942 53010  53.2132 110.3613 0001356  80.0091 280.1054 15.08835343214406

JSON: /api/v1/satellites/53010 · /tle

For live sub-satellite position, see the globe view (requires WebGL).

§ Visibility from observer

Set your observer location to see the next 7 days of passes ≥ 10°. The values pass through the URL so the page stays shareable.

No JS? Fill the form by hand. The geolocation button needs JavaScript.